Weather History for KMLF - July, 2013

Change the Weather History Date:

Wednesday, July 3, 2013

  Actual Average Record
Temperature  
Mean Temperature 81 °F -  
Max Temperature 102 °F 91 °F 102 °F (2001)
Min Temperature 60 °F 52 °F 48 °F (1997)
Cooling Degree Days 16    
Growing Degree Days 31 (Base 50)    
Moisture  
Dew Point 29 °F    
Average Humidity 12    
Maximum Humidity 32    
Minimum Humidity 4    
Precipitation  
Precipitation 0.00 in - - ()
Sea Level Pressure  
Sea Level Pressure 29.79 in    
Wind  
Wind Speed 8 mph (North)    
Max Wind Speed 18 mph    
Max Gust Speed 26 mph    
Visibility 10 miles    
Events      
Averages and records for this station are not official NWS values.
T = Trace of Precipitation, MM = Missing Value Source: NWS Daily Summary

Daily Weather History Graph

Daily Weather History Graph

Search for Another Location

Airport or City:

Trip Planner

Search our weather history database for the weather conditions in past years. The results will help you decide how hot, cold, wet, or windy it might be!

Date:

Astronomy

Jul. 03, 2013 Rise Set
Actual Time 6:13 AM MDT 8:59 PM MDT
Civil Twilight 5:41 AM MDT 9:31 PM MDT
Nautical Twilight 5:01 AM MDT 10:10 PM MDT
Astronomical Twilight 4:17 AM MDT 10:55 PM MDT
Moon 2:51 AM MDT 5:14 PM MDT
Length of Visible Light 15h 49m
Length of Day
14h 46m
Waning Crescent, 18% of the Moon is Illuminated
Jul 3
Waning Crescent
Jul 8
New
Jul 15
First Quarter
Jul 22
Full
Jul 29
Last Quarter

Hourly Weather History & Observations

Time (MDT) Temp. Dew Point Humidity Pressure Visibility Wind Dir Wind Speed Gust Speed Precip Events Conditions
12:52 AM 75.9 °F 10.9 °F 8% 29.79 in 10.0 mi NNW 10.4 mph - N/A   Clear
1:52 AM 72.0 °F 16.0 °F 12% 29.80 in 10.0 mi ENE 4.6 mph - N/A   Clear
2:52 AM 70.0 °F 16.0 °F 13% 29.80 in 10.0 mi Calm Calm - N/A   Clear
3:52 AM 64.9 °F 14.0 °F 14% 29.81 in 10.0 mi Calm Calm - N/A   Clear
4:52 AM 66.9 °F 15.1 °F 14% 29.81 in 10.0 mi Calm Calm - N/A   Clear
5:52 AM 62.1 °F 19.9 °F 20% 29.83 in 10.0 mi Calm Calm - N/A   Clear
6:52 AM 61.0 °F 30.9 °F 32% 29.85 in 10.0 mi South 8.1 mph - N/A   Clear
7:52 AM 70.0 °F 28.9 °F 22% 29.86 in 10.0 mi SSW 4.6 mph - N/A   Clear
8:52 AM 75.9 °F 27.0 °F 16% 29.86 in 10.0 mi South 4.6 mph - N/A   Clear
9:52 AM 88.0 °F 30.9 °F 13% 29.87 in 10.0 mi North 10.4 mph - N/A   Clear
10:52 AM 91.0 °F 34.0 °F 13% 29.86 in 10.0 mi North 15.0 mph 21.9 mph N/A   Clear
11:52 AM 93.9 °F 35.1 °F 13% 29.85 in 10.0 mi North 16.1 mph 24.2 mph N/A   Clear
12:24 PM 95.0 °F 35.6 °F 12% 30.08 in 10.0 mi NNE 10.4 mph 23.0 mph N/A   Clear
12:52 PM 96.1 °F 35.1 °F 12% 29.83 in 10.0 mi North 13.8 mph 23.0 mph N/A   Clear
1:52 PM 98.1 °F 35.1 °F 11% 29.80 in 10.0 mi NE 12.7 mph 24.2 mph N/A   Clear
2:52 PM 100.0 °F 30.0 °F 9% 29.78 in 10.0 mi North 15.0 mph 23.0 mph N/A   Clear
3:52 PM 100.9 °F 28.0 °F 8% 29.76 in 10.0 mi North 18.4 mph 26.5 mph N/A   Clear
4:52 PM 100.0 °F 30.0 °F 9% 29.73 in 10.0 mi North 10.4 mph 24.2 mph N/A   Clear
5:52 PM 98.1 °F 30.9 °F 9% 29.70 in 10.0 mi NNE 13.8 mph 19.6 mph N/A   Clear
6:52 PM 99.0 °F 32.0 °F 10% 29.69 in 10.0 mi NNE 11.5 mph 18.4 mph N/A   Clear
7:52 PM 93.9 °F 30.9 °F 11% 29.68 in 10.0 mi North 6.9 mph - N/A   Clear
8:52 PM 89.1 °F 34.0 °F 14% 29.71 in 10.0 mi North 6.9 mph - N/A   Clear
9:52 PM 88.0 °F 35.1 °F 15% 29.69 in 10.0 mi North 9.2 mph - N/A   Clear
10:52 PM 86.0 °F 37.0 °F 18% 29.72 in 10.0 mi North 15.0 mph 20.7 mph N/A   Clear
11:52 PM 82.9 °F 39.9 °F 22% 29.73 in 10.0 mi North 10.4 mph - N/A   Clear